IT9RID Weather Reports


Display with metric or nautical units.
time (UTC)temp
F
wind
direction
speed
MPH
gust
MPH
rain 1hr
in
rain 24hr
in
rain mn
in
humidity
%
barometer
mb
20260507093504 75 94 0.0 10.0 0.00 0.00 0.00 33 1010.3
20260507092504 75 94 3.0 4.0 0.00 0.00 0.00 32 1010.1
20260507091504 74 109 9.0 17.0 0.00 0.00 0.00 32 1010.3
20260507090504 74 96 2.0 10.0 0.00 0.00 0.00 32 1010.2
20260507085503 73 92 8.0 17.0 0.00 0.00 0.00 32 1010.2
20260507084503 73 336 3.0 12.0 0.00 0.00 0.00 35 1010.4
20260507083503 72 174 0.0 15.0 0.00 0.00 0.00 37 1010.5
20260507082523 72 207 1.0 14.0 0.00 0.00 0.00 38 1010.7
20260507081503 72 130 1.0 8.0 0.00 0.00 0.00 38 1010.6
20260507080503 72 138 9.0 9.0 0.00 0.00 0.00 40 1010.7
20260507075503 71 86 10.0 16.0 0.00 0.00 0.00 40 1010.8
20260507074502 71 87 8.0 18.0 0.00 0.00 0.00 41 1011.0
20260507073502 70 74 8.0 15.0 0.00 0.00 0.00 42 1011.3
20260507072502 70 82 3.0 4.0 0.00 0.00 0.00 44 1011.3
20260507071502 69 104 0.0 10.0 0.00 0.00 0.00 44 1011.4
20260507070503 67 79 0.0 7.0 0.00 0.00 0.00 54 1011.6
20260507065501 67 240 0.0 3.0 0.00 0.00 0.00 56 1011.5
20260507064501 67 232 0.0 3.0 0.00 0.00 0.00 56 1011.5
20260507063501 68 157 0.0 3.0 0.00 0.00 0.00 47 1011.6
20260507062501 67 142 0.0 4.0 0.00 0.00 0.00 47 1011.8
20260507061502 67 143 5.0 9.0 0.00 0.00 0.00 46 1011.7
20260507060501 67 150 1.0 5.0 0.00 0.00 0.00 44 1011.7
20260507055501 65 77 0.0 3.0 0.00 0.00 0.00 50 1011.8
20260507054500 65 134 0.0 0.0 0.00 0.00 0.00 51 1011.8
20260507053500 65 134 0.0 0.0 0.00 0.00 0.00 48 1012.0
20260507052500 65 123 0.0 0.0 0.00 0.00 0.00 47 1011.8
20260507051500 65 123 0.0 0.0 0.00 0.00 0.00 46 1011.7
20260507050500 64 186 0.0 0.0 0.00 0.00 0.00 45 1011.7
20260507045500 63 186 0.0 0.0 0.00 0.00 0.00 46 1011.6
20260507044459 63 169 0.0 0.0 0.00 0.00 0.00 48 1011.7
20260507043459 63 169 0.0 0.0 0.00 0.00 0.00 48 1011.6
20260507042459 63 163 0.0 0.0 0.00 0.00 0.00 49 1011.5
20260507041459 63 163 0.0 0.0 0.00 0.00 0.00 46 1011.6
20260507040459 63 163 0.0 2.0 0.00 0.00 0.00 48 1011.6
20260507035459 64 192 0.0 0.0 0.00 0.00 0.00 47 1011.8
20260507034459 64 180 0.0 3.0 0.00 0.00 0.00 45 1011.8
20260507033459 63 153 0.0 0.0 0.00 0.00 0.00 50 1011.8
20260507032500 64 153 0.0 0.0 0.00 0.00 0.00 49 1011.5
20260507031458 64 153 0.0 0.0 0.00 0.00 0.00 48 1011.6
20260507030458 64 153 0.0 0.0 0.00 0.00 0.00 48 1011.8
20260507025458 65 153 0.0 2.0 0.00 0.00 0.00 46 1011.7
20260507024458 65 152 0.0 6.0 0.00 0.00 0.00 45 1011.6
20260507023458 66 115 0.0 2.0 0.00 0.00 0.00 44 1011.8
20260507022457 66 143 2.0 2.0 0.00 0.00 0.00 44 1011.7
20260507021457 66 175 0.0 1.0 0.00 0.00 0.00 43 1011.7
20260507020457 66 205 0.0 0.0 0.00 0.00 0.00 44 1011.7
20260507015457 66 209 0.0 0.0 0.00 0.00 0.00 45 1011.7
20260507014457 67 209 0.0 2.0 0.00 0.00 0.00 42 1011.7
20260507013457 67 146 0.0 0.0 0.00 0.00 0.00 42 1011.6
20260507012456 67 109 0.0 3.0 0.00 0.00 0.00 42 1011.4
20260507011456 67 147 0.0 0.0 0.00 0.00 0.00 42 1011.4
20260507010456 67 236 2.0 3.0 0.00 0.00 0.00 42 1011.7
20260507005456 67 150 0.0 0.0 0.00 0.00 0.00 43 1011.6
20260507004456 67 133 0.0 3.0 0.00 0.00 0.00 43 1011.5
20260507003456 67 147 0.0 2.0 0.00 0.00 0.00 45 1011.6
20260507002455 67 175 0.0 6.0 0.00 0.00 0.00 44 1011.6
20260507001455 67 209 3.0 5.0 0.00 0.00 0.00 44 1011.6
20260507000455 67 204 1.0 3.0 0.00 0.00 0.00 45 1011.8
20260506235455 67 194 1.0 4.0 0.00 0.00 0.00 44 1011.8
20260506234455 67 154 5.0 7.0 0.00 0.00 0.00 43 1011.8
20260506233455 68 175 1.0 7.0 0.00 0.00 0.00 43 1012.0
20260506232455 68 192 3.0 12.0 0.00 0.00 0.00 41 1012.1
20260506231454 68 193 5.0 12.0 0.00 0.00 0.00 41 1012.1
20260506230454 68 147 6.0 12.0 0.00 0.00 0.00 41 1011.9
20260506225454 68 200 8.0 13.0 0.00 0.00 0.00 41 1011.8
20260506224454 68 221 9.0 12.0 0.00 0.00 0.00 41 1011.7
20260506223454 68 148 10.0 15.0 0.00 0.00 0.00 42 1011.8
20260506222453 68 159 12.0 12.0 0.00 0.00 0.00 41 1011.6
20260506221454 68 110 3.0 8.0 0.00 0.00 0.00 40 1011.7
20260506220453 67 167 0.0 1.0 0.00 0.00 0.00 42 1011.8
20260506215453 67 128 10.0 10.0 0.00 0.00 0.00 45 1011.6
20260506214453 67 165 0.0 6.0 0.00 0.00 0.00 44 1011.5
20260506213453 66 212 0.0 11.0 0.00 0.00 0.00 47 1011.8
20260506212453 66 215 6.0 12.0 0.00 0.00 0.00 48 1011.5
20260506211542 65 207 2.0 4.0 0.00 0.00 0.00 51 1011.5
20260506210452 66 216 1.0 3.0 0.00 0.00 0.00 48 1010.7
20260506205452 66 151 0.0 1.0 0.00 0.00 0.00 44 1010.8
20260506204452 66 152 0.0 3.0 0.00 0.00 0.00 44 1011.4
20260506203452 67 202 0.0 1.0 0.00 0.00 0.00 45 1011.7
20260506202452 67 200 0.0 0.0 0.00 0.00 0.00 45 1011.6
20260506201452 67 162 0.0 0.0 0.00 0.00 0.00 46 1011.6
20260506200452 67 162 0.0 0.0 0.00 0.00 0.00 47 1012.0
20260506195451 68 154 3.0 3.0 0.00 0.00 0.00 37 1012.1
20260506194451 68 235 0.0 5.0 0.00 0.00 0.00 36 1012.3
20260506193451 68 146 0.0 3.0 0.00 0.00 0.00 37 1012.3
20260506192451 68 153 0.0 3.0 0.00 0.00 0.00 36 1012.1
20260506191451 68 170 2.0 3.0 0.00 0.00 0.00 43 1012.2
20260506190451 68 211 0.0 3.0 0.00 0.00 0.00 42 1012.4
20260506185450 68 188 0.0 3.0 0.00 0.00 0.00 41 1012.4
20260506184450 68 171 0.0 5.0 0.00 0.00 0.00 48 1012.4
20260506183450 68 205 2.0 11.0 0.00 0.00 0.00 52 1012.3
20260506182450 68 242 0.0 6.0 0.00 0.00 0.00 53 1012.4
20260506181450 68 261 0.0 4.0 0.00 0.00 0.00 54 1012.4
20260506180450 68 221 0.0 2.0 0.00 0.00 0.00 62 1012.5
20260506175449 68 224 0.0 0.0 0.00 0.00 0.00 63 1012.3
20260506174449 68 224 0.0 0.0 0.00 0.00 0.00 63 1012.3
20260506173449 68 223 0.0 0.0 0.00 0.00 0.00 62 1012.1
20260506172449 69 223 0.0 0.0 0.00 0.00 0.00 62 1012.0
20260506171449 69 217 2.0 4.0 0.00 0.00 0.00 63 1012.2
20260506170449 69 211 0.0 1.0 0.00 0.00 0.00 62 1012.2
20260506165448 69 202 2.0 3.0 0.00 0.00 0.00 63 1012.3
20260506164448 69 242 0.0 3.0 0.00 0.00 0.00 63 1012.5
20260506163448 69 253 1.0 4.0 0.00 0.00 0.00 63 1012.6
20260506162448 69 221 0.0 8.0 0.00 0.00 0.00 65 1012.5
20260506161448 69 241 0.0 6.0 0.00 0.00 0.00 68 1012.6
20260506160448 69 234 2.0 4.0 0.00 0.00 0.00 71 1012.7
20260506155447 69 308 3.0 8.0 0.00 0.00 0.00 72 1012.7
20260506154447 69 232 1.0 8.0 0.00 0.00 0.00 71 1012.5
20260506153447 71 275 3.0 9.0 0.00 0.00 0.00 64 1012.4
20260506152447 73 254 4.0 8.0 0.00 0.00 0.00 51 1012.2
20260506151447 73 229 4.0 6.0 0.00 0.00 0.00 47 1012.1
20260506150447 75 171 2.0 8.0 0.00 0.00 0.00 42 1011.9
20260506145447 73 215 8.0 10.0 0.00 0.00 0.00 50 1011.9
20260506144446 74 194 0.0 13.0 0.00 0.00 0.00 47 1012.0
20260506143446 75 142 1.0 12.0 0.00 0.00 0.00 46 1012.0
20260506142446 75 331 2.0 12.0 0.00 0.00 0.00 46 1011.9
20260506141446 76 237 10.0 12.0 0.00 0.00 0.00 47 1011.7
20260506140446 76 217 4.0 10.0 0.00 0.00 0.00 42 1011.4
20260506135446 76 172 4.0 11.0 0.00 0.00 0.00 44 1011.3
20260506134446 77 244 6.0 13.0 0.00 0.00 0.00 42 1011.6
20260506133445 78 170 8.0 13.0 0.00 0.00 0.00 40 1011.6
20260506132445 79 200 9.0 11.0 0.00 0.00 0.00 38 1011.6
20260506131445 79 220 8.0 10.0 0.00 0.00 0.00 36 1011.5
20260506130445 80 195 5.0 10.0 0.00 0.00 0.00 38 1011.7
20260506125448 79 150 4.0 10.0 0.00 0.00 0.00 42 1011.8
20260506124445 79 162 1.0 16.0 0.00 0.00 0.00 40 1012.1
20260506123444 80 192 3.0 7.0 0.00 0.00 0.00 41 1012.0
20260506122444 81 134 1.0 9.0 0.00 0.00 0.00 42 1012.1
20260506121444 80 256 3.0 4.0 0.00 0.00 0.00 44 1011.9
20260506120444 78 84 3.0 9.0 0.00 0.00 0.00 47 1012.0
20260506115444 78 77 3.0 10.0 0.00 0.00 0.00 47 1012.1
20260506114444 78 62 4.0 7.0 0.00 0.00 0.00 46 1012.3
20260506113444 78 55 4.0 6.0 0.00 0.00 0.00 47 1012.4
20260506112443 78 22 4.0 9.0 0.00 0.00 0.00 47 1012.5
20260506111443 77 55 3.0 10.0 0.00 0.00 0.00 47 1012.7
20260506110443 77 36 3.0 8.0 0.00 0.00 0.00 46 1012.7
20260506105443 77 21 4.0 6.0 0.00 0.00 0.00 46 1012.8
20260506104443 77 34 5.0 10.0 0.00 0.00 0.00 45 1013.1
20260506103442 78 57 0.0 3.0 0.00 0.00 0.00 44 1013.0
20260506102442 78 73 0.0 4.0 0.00 0.00 0.00 43 1013.1
20260506101442 77 73 3.0 3.0 0.00 0.00 0.00 45 1013.3
20260506100442 77 145 0.0 3.0 0.00 0.00 0.00 45 1013.3
20260506095442 76 76 0.0 3.0 0.00 0.00 0.00 46 1013.4
20260506094442 75 24 3.0 3.0 0.00 0.00 0.00 46 1013.6